CDT,Max TemperatureF,Mean TemperatureF,Min TemperatureF,Max Dew PointF,MeanDew PointF,Min DewpointF,Max Humidity, Mean Humidity, Min Humidity, Max Sea Level PressureIn, Mean Sea Level PressureIn, Min Sea Level PressureIn, Max VisibilityMiles, Mean VisibilityMiles, Min VisibilityMiles, Max Wind SpeedMPH, Mean Wind SpeedMPH, Max Gust SpeedMPH,PrecipitationIn, CloudCover, Events, WindDirDegrees
2011-10-1,84,65,46,41,32,25,71,36,11,30.25,30.18,30.13,10,10,10,7,1,,0.00,1,,80
2011-10-2,86,66,46,55,39,34,66,41,18,30.25,30.19,30.12,10,10,10,13,2,16,0.00,0,,143
2011-10-3,86,67,48,50,40,36,66,40,19,30.24,30.17,30.12,10,10,10,14,2,20,0.00,1,Rain,151
2011-10-4,84,65,46,48,38,32,71,41,15,30.26,30.16,30.08,10,10,10,16,3,23,0.00,0,,134
2011-10-5,84,70,55,61,52,39,82,55,35,30.14,30.07,29.95,10,10,6,17,6,25,0.00,3,,149
2011-10-6,87,78,69,64,61,55,78,58,33,30.02,29.95,29.87,10,10,10,22,13,32,0.00,5,,148
2011-10-7,91,81,71,66,63,57,83,57,33,30.01,29.95,29.89,10,10,10,25,16,34,0.00,4,,155
2011-10-8,82,74,66,72,66,63,94,75,58,30.01,29.95,29.87,10,9,0,22,16,32,0.01,6,Fog-Rain-Thunderstorm,149
2011-10-9,69,64,59,61,59,57,100,86,73,30.06,30.01,29.94,10,8,2,20,10,31,1.90,7,Rain-Thunderstorm,54
2011-10-10,71,64,57,61,57,55,100,86,57,30.13,30.06,30.00,10,9,0,8,3,,0.00,6,Fog,19
2011-10-11,80,66,51,63,58,52,100,77,48,30.01,29.93,29.81,10,10,1,10,3,20,0.00,2,,161
2011-10-12,84,72,59,64,62,59,100,75,42,29.91,29.82,29.79,10,10,7,12,4,17,0.00,2,,115
2011-10-13,80,68,55,61,46,32,100,56,17,30.07,30.00,29.96,10,10,6,12,4,16,0.00,0,,354
2011-10-14,86,68,50,54,46,39,100,59,20,30.03,29.97,29.91,10,10,2,15,4,23,0.00,0,,155
2011-10-15,84,67,50,54,49,45,94,56,25,30.13,30.05,29.97,10,10,10,10,3,,0.00,0,,155
2011-10-16,84,68,53,61,54,50,94,63,35,30.12,30.04,29.95,10,10,10,13,3,17,0.00,0,,174
2011-10-17,91,73,55,63,57,48,94,61,28,29.98,29.83,29.66,10,10,9,24,7,44,0.00,0,,172
2011-10-18,66,58,51,45,33,25,54,38,22,30.18,30.09,29.93,10,10,10,25,17,34,0.00,1,,341
2011-10-19,71,54,37,37,31,25,93,48,17,30.22,30.14,30.06,10,10,9,22,5,28,0.00,0,,331
2011-10-20,77,57,37,37,34,30,93,52,19,30.12,30.05,29.95,10,10,10,17,4,22,0.00,0,,146
2011-10-21,82,63,44,55,48,37,87,58,32,30.15,30.07,30.03,10,10,10,9,3,,0.00,1,,153
2011-10-22,82,71,60,63,59,54,88,67,42,30.08,30.01,29.93,10,10,3,16,7,23,0.00,4,,161
2011-10-23,80,68,55,61,56,50,100,70,37,30.16,30.04,29.96,10,10,10,13,5,18,0.00,0,,31
2011-10-24,84,64,44,61,47,37,100,67,20,30.24,30.16,30.10,10,8,0,12,2,17,0.00,2,Fog-Rain,137
2011-10-25,86,72,59,59,55,50,88,58,33,30.11,30.04,29.92,10,10,10,22,8,28,0.00,0,,170
2011-10-26,84,68,53,57,53,50,94,60,35,29.96,29.90,29.83,10,10,10,16,5,28,0.00,0,,131
2011-10-27,62,54,46,50,45,41,100,77,62,30.12,29.99,29.89,10,9,1,20,10,28,0.07,6,Rain,5
2011-10-28,59,52,44,41,38,32,87,63,36,30.33,30.25,30.19,10,10,10,17,11,24,0.00,4,,342
2011-10-29,66,47,28,37,30,27,100,57,23,30.34,30.23,30.08,10,10,10,12,3,17,0.00,1,,173
2011-10-30,71,53,35,41,35,32,87,54,29,30.18,30.11,30.06,10,10,10,12,4,16,0.00,0,,155
2011-10-31,77,57,37,48,42,32,87,60,32,30.24,30.17,30.08,10,10,6,12,3,,0.00,1,,182